Location: Aldenham
(51.6667°N, 0.3500°W)
Time: 20:50:42
(UTC+00:00)

Vanguard 2 Rocket - Pass Details

Date: 20 February 2026
Orbit: 553 x 3287 km, 32.9° (Epoch: 6 March)

Event Time Altitude Azimuth Distance (km) Brightness Sun altitude
Rises 09:09:43 0° 187° (S) 7,102 12.0 15.8°
Reaches altitude 10° 09:17:48 10° 168° (SSE) 6,223 12.2 16.7°
Maximum altitude 09:26:59 15° 140° (SE) 5,668 14.3 17.7°
Drops below altitude 10° 09:35:32 10° 112° (ESE) 5,789 12.3 18.6°
Sets 09:42:21 0° 93° (E) 6,369 11.9 19.3°
